Simultaneous Nadir Overpasses (SNOs) Predictions

Prediction of SNOs between METOP-A and TERRA Satellite Orbit:

Table of predicted SNOs for the next 14.0 days since TLE Epoch: 12/19/2015
Index Date (METOP-A) Time (METOP-A) Lat,Lon (METOP-A) SZA (METOP-A ) Date (TERRA) Time (TERRA) Lat,Lon (TERRA) SZA (TERRA ) Distance(km) Time Diff (sec)
1 12/19/2015 10:29:30 81.28, 69.40 107.35 12/19/2015 10:29:44 81.29, 69.55 107.37 2.51 14
2 12/19/2015 11:20:09 -81.30,-122.45 72.56 12/19/2015 11:19:10 -81.30,-122.55 72.59 1.87 59
3 12/22/2015 06:03:52 81.29, 136.18 107.39 12/22/2015 06:04:03 81.29, 136.02 107.37 2.72 11
4 12/22/2015 06:54:33 -81.29, -56.44 72.61 12/22/2015 06:53:30 -81.28, -56.41 72.64 0.87 63
5 12/25/2015 01:38:16 81.29,-157.46 107.31 12/25/2015 01:38:28 81.29,-157.63 107.30 2.77 12
6 12
